N92789 KATL-KFLL

Flight info

Callsign N92789
Flight time 1h 17m
Altitude 39000
Route SMLTZ3 WALET DCT ZPLEN TEEKY3
Aircraft C750/M-SBDE3FGHRWXY/S

Departure

Time 2026-05-03 22:07
Airport Hartsfield Jackson Atlanta International Airport (KATL)

Arrival

Time 2026-05-03 23:25
Airport Fort Lauderdale Hollywood International Airport (KFLL)
Time Latitude Longitude Altitude Speed Heading
2026-05-03 21:56 33.65251 -84.42419 1003 ft 0 kts 207°
2026-05-03 22:00 33.65242 -84.42414 1003 ft 6 kts 150°
2026-05-03 22:00 33.65206 -84.42363 1003 ft 8 kts 129°
2026-05-03 22:00 33.65169 -84.42302 1003 ft 9 kts 104°
2026-05-03 22:00 33.65166 -84.42256 1003 ft 11 kts 137°
2026-05-03 22:01 33.65104 -84.42214 1003 ft 8 kts 167°
2026-05-03 22:01 33.65065 -84.42163 1003 ft 10 kts 94°
2026-05-03 22:01 33.65064 -84.42083 1003 ft 9 kts 89°
2026-05-03 22:01 33.65065 -84.42011 1003 ft 8 kts 89°
2026-05-03 22:02 33.65065 -84.41957 1003 ft 7 kts 90°
2026-05-03 22:02 33.65065 -84.41899 1003 ft 6 kts 90°
2026-05-03 22:02 33.65065 -84.41865 1003 ft 5 kts 90°
2026-05-03 22:02 33.65065 -84.41822 1003 ft 6 kts 90°
2026-05-03 22:03 33.65065 -84.41771 1003 ft 7 kts 90°
2026-05-03 22:03 33.65065 -84.41694 1002 ft 12 kts 89°
2026-05-03 22:03 33.65069 -84.41583 1002 ft 14 kts 80°
2026-05-03 22:03 33.65103 -84.41482 1003 ft 13 kts 69°
2026-05-03 22:04 33.65120 -84.41386 1003 ft 10 kts 92°
2026-05-03 22:04 33.65119 -84.41288 1003 ft 15 kts 89°
2026-05-03 22:04 33.65120 -84.41137 1003 ft 21 kts 90°
2026-05-03 22:04 33.65106 -84.40986 1003 ft 19 kts 128°
2026-05-03 22:05 33.64965 -84.40963 1003 ft 23 kts 180°
2026-05-03 22:05 33.64845 -84.40896 1002 ft 21 kts 95°
2026-05-03 22:05 33.64845 -84.40701 1003 ft 23 kts 90°
2026-05-03 22:05 33.64809 -84.40571 1003 ft 13 kts 164°
2026-05-03 22:06 33.64772 -84.40568 1002 ft 0 kts 180°
2026-05-03 22:06 33.64684 -84.40571 1000 ft 17 kts 200°
2026-05-03 22:06 33.64679 -84.40784 1001 ft 71 kts 269°
2026-05-03 22:06 33.64679 -84.41769 1043 ft 148 kts 271°
2026-05-03 22:07 33.64693 -84.43184 1410 ft 185 kts 273°
2026-05-03 22:07 33.64682 -84.44821 2160 ft 208 kts 270°
2026-05-03 22:07 33.64833 -84.46595 3048 ft 217 kts 284°
2026-05-03 22:07 33.65168 -84.48312 4260 ft 216 kts 283°
2026-05-03 22:08 33.65488 -84.50091 5307 ft 221 kts 283°
2026-05-03 22:08 33.65821 -84.51920 6316 ft 227 kts 284°
2026-05-03 22:08 33.66168 -84.53790 7248 ft 232 kts 284°
2026-05-03 22:08 33.66520 -84.55684 8350 ft 233 kts 284°
2026-05-03 22:09 33.66567 -84.57646 9306 ft 243 kts 257°
2026-05-03 22:09 33.65756 -84.59448 9950 ft 260 kts 233°
2026-05-03 22:09 33.64171 -84.60719 9968 ft 286 kts 201°
2026-05-03 22:10 33.60069 -84.59651 10592 ft 336 kts 152°
2026-05-03 22:10 33.58020 -84.58107 10839 ft 359 kts 147°
2026-05-03 22:10 33.55901 -84.56440 11474 ft 365 kts 149°
2026-05-03 22:10 33.53697 -84.54894 12248 ft 369 kts 153°
2026-05-03 22:11 33.51437 -84.53388 13001 ft 373 kts 153°
2026-05-03 22:11 33.49187 -84.51809 13815 ft 378 kts 151°
2026-05-03 22:11 33.46925 -84.50170 14541 ft 381 kts 151°
2026-05-03 22:11 33.44628 -84.48545 15249 ft 385 kts 152°
2026-05-03 22:12 33.42325 -84.46949 15967 ft 389 kts 152°
2026-05-03 22:12 33.39980 -84.45309 16724 ft 392 kts 152°
2026-05-03 22:12 33.37616 -84.43637 17484 ft 396 kts 152°
2026-05-03 22:12 33.35225 -84.41952 18273 ft 400 kts 152°
2026-05-03 22:13 33.32806 -84.40261 18973 ft 405 kts 153°
2026-05-03 22:13 33.30358 -84.38550 19691 ft 408 kts 153°
2026-05-03 22:13 33.27891 -84.36819 20442 ft 413 kts 153°
2026-05-03 22:13 33.25401 -84.35073 21170 ft 417 kts 153°
2026-05-03 22:14 33.22883 -84.33312 21882 ft 421 kts 153°
2026-05-03 22:14 33.20685 -84.31777 22501 ft 425 kts 153°
2026-05-03 22:14 33.18118 -84.29984 23203 ft 430 kts 153°
2026-05-03 22:14 33.15526 -84.28173 23858 ft 434 kts 153°
2026-05-03 22:15 33.12904 -84.26342 24440 ft 438 kts 153°
2026-05-03 22:15 33.10261 -84.24499 25030 ft 441 kts 154°
2026-05-03 22:15 33.07596 -84.22644 25613 ft 445 kts 154°
2026-05-03 22:15 33.04946 -84.20799 26172 ft 449 kts 154°
2026-05-03 22:16 33.02237 -84.18913 26743 ft 452 kts 154°
2026-05-03 22:16 32.99460 -84.17162 27309 ft 450 kts 162°
2026-05-03 22:16 32.96528 -84.15882 27908 ft 449 kts 167°
2026-05-03 22:16 32.93562 -84.14677 28478 ft 453 kts 167°
2026-05-03 22:17 32.90571 -84.13433 29069 ft 456 kts 167°
2026-05-03 22:17 32.87565 -84.12181 29644 ft 460 kts 167°
2026-05-03 22:17 32.84530 -84.10936 30203 ft 463 kts 168°
2026-05-03 22:17 32.81471 -84.09688 30677 ft 466 kts 168°
2026-05-03 22:18 32.78395 -84.08421 31178 ft 469 kts 168°
2026-05-03 22:18 32.75306 -84.07146 31662 ft 471 kts 168°
2026-05-03 22:18 32.72200 -84.05870 32158 ft 472 kts 169°
2026-05-03 22:18 32.69087 -84.04598 32646 ft 475 kts 169°
2026-05-03 22:19 32.65953 -84.03317 33107 ft 477 kts 169°
2026-05-03 22:19 32.62807 -84.02026 33581 ft 480 kts 169°
2026-05-03 22:19 32.59689 -84.00747 34043 ft 482 kts 169°
2026-05-03 22:19 32.56505 -83.99447 34435 ft 485 kts 169°
2026-05-03 22:20 32.53296 -83.98139 34786 ft 488 kts 169°
2026-05-03 22:20 32.50074 -83.96822 35139 ft 492 kts 169°
2026-05-03 22:20 32.46830 -83.95497 35452 ft 495 kts 170°
2026-05-03 22:20 32.43561 -83.94165 35820 ft 497 kts 170°
2026-05-03 22:21 32.40280 -83.92829 36151 ft 501 kts 170°
2026-05-03 22:21 32.36973 -83.91485 36480 ft 504 kts 170°
2026-05-03 22:21 32.33630 -83.90252 36789 ft 503 kts 173°
2026-05-03 22:21 32.30271 -83.89059 37145 ft 506 kts 173°
2026-05-03 22:22 32.26888 -83.87850 37464 ft 510 kts 173°
2026-05-03 22:22 32.23479 -83.86619 37753 ft 513 kts 172°
2026-05-03 22:22 32.20063 -83.85386 38054 ft 512 kts 173°
2026-05-03 22:23 32.14391 -83.83364 38367 ft 512 kts 173°
2026-05-03 22:23 32.10979 -83.82145 38602 ft 512 kts 173°
2026-05-03 22:23 32.07568 -83.80922 38810 ft 512 kts 173°
2026-05-03 22:23 32.04157 -83.79703 38969 ft 512 kts 173°
2026-05-03 22:24 32.00813 -83.78500 39102 ft 491 kts 173°
2026-05-03 22:24 31.94188 -83.76167 39112 ft 504 kts 174°
2026-05-03 22:25 31.87467 -83.73756 39121 ft 511 kts 173°
2026-05-03 22:25 31.80658 -83.71342 39126 ft 511 kts 174°
2026-05-03 22:26 31.73830 -83.68938 39130 ft 510 kts 174°
2026-05-03 22:26 31.66981 -83.67019 39126 ft 503 kts 179°
2026-05-03 22:27 31.60132 -83.65605 39119 ft 494 kts 182°
2026-05-03 22:27 31.53322 -83.63872 39123 ft 502 kts 179°
2026-05-03 22:28 31.46555 -83.61776 39123 ft 511 kts 173°
2026-05-03 22:28 31.39767 -83.59439 39124 ft 505 kts 176°
2026-05-03 22:29 31.32959 -83.57329 39121 ft 507 kts 175°
2026-05-03 22:29 31.26169 -83.55039 39120 ft 506 kts 176°
2026-05-03 22:30 31.19420 -83.52908 39117 ft 505 kts 176°
2026-05-03 22:30 31.12664 -83.50679 39122 ft 504 kts 176°
2026-05-03 22:31 31.05909 -83.48517 39125 ft 502 kts 176°
2026-05-03 22:31 30.99157 -83.46322 39134 ft 503 kts 176°
2026-05-03 22:32 30.92409 -83.44151 39128 ft 503 kts 176°
2026-05-03 22:32 30.85666 -83.41975 39115 ft 502 kts 176°
2026-05-03 22:33 30.78969 -83.39822 39117 ft 503 kts 176°
2026-05-03 22:33 30.72214 -83.37652 39112 ft 504 kts 176°
2026-05-03 22:34 30.65452 -83.35481 39115 ft 504 kts 176°
2026-05-03 22:34 30.58698 -83.33319 39118 ft 503 kts 176°
2026-05-03 22:35 30.51931 -83.31154 39123 ft 504 kts 176°
2026-05-03 22:35 30.45170 -83.28994 39122 ft 504 kts 176°
2026-05-03 22:36 30.38407 -83.26837 39123 ft 504 kts 176°
2026-05-03 22:36 30.31688 -83.24697 39118 ft 504 kts 176°
2026-05-03 22:37 30.24927 -83.22547 39121 ft 504 kts 176°
2026-05-03 22:37 30.18173 -83.20400 39111 ft 503 kts 176°
2026-05-03 22:38 30.11419 -83.18261 39109 ft 503 kts 176°
2026-05-03 22:38 30.04660 -83.16119 39111 ft 503 kts 176°
2026-05-03 22:39 29.97942 -83.13993 39108 ft 500 kts 177°
2026-05-03 22:39 29.91226 -83.11874 39092 ft 499 kts 177°
2026-05-03 22:40 29.84512 -83.09757 39090 ft 500 kts 177°
2026-05-03 22:40 29.77791 -83.07640 39084 ft 500 kts 177°
2026-05-03 22:41 29.71108 -83.05538 39079 ft 500 kts 177°
2026-05-03 22:41 29.64392 -83.03429 39035 ft 500 kts 177°
2026-05-03 22:42 29.57687 -83.01327 39077 ft 500 kts 177°
2026-05-03 22:42 29.50985 -82.99227 39089 ft 500 kts 177°
2026-05-03 22:43 29.44271 -82.97128 39089 ft 500 kts 177°
2026-05-03 22:43 29.37559 -82.95031 39081 ft 500 kts 177°
2026-05-03 22:44 29.30860 -82.92941 39080 ft 499 kts 178°
2026-05-03 22:44 29.24157 -82.90855 39078 ft 499 kts 177°
2026-05-03 22:45 29.17447 -82.88767 39079 ft 499 kts 178°
2026-05-03 22:45 29.10788 -82.86699 39081 ft 499 kts 178°
2026-05-03 22:46 29.04090 -82.84620 39058 ft 499 kts 178°
2026-05-03 22:46 28.97360 -82.82538 39068 ft 501 kts 178°
2026-05-03 22:47 28.90629 -82.80453 39065 ft 501 kts 178°
2026-05-03 22:47 28.83895 -82.78374 39063 ft 501 kts 178°
2026-05-03 22:48 28.77214 -82.76312 39068 ft 501 kts 178°
2026-05-03 22:48 28.70464 -82.74235 39069 ft 503 kts 178°
2026-05-03 22:49 28.63698 -82.72148 39067 ft 504 kts 178°
2026-05-03 22:49 28.56919 -82.70068 39064 ft 504 kts 178°
2026-05-03 22:50 28.50154 -82.67990 39065 ft 503 kts 178°
2026-05-03 22:50 28.43388 -82.65918 39059 ft 504 kts 177°
2026-05-03 22:51 28.36595 -82.63837 39070 ft 505 kts 177°
2026-05-03 22:51 28.29847 -82.61775 39065 ft 505 kts 177°
2026-05-03 22:52 28.23051 -82.59701 39064 ft 505 kts 177°
2026-05-03 22:52 28.16262 -82.57630 39020 ft 505 kts 177°
2026-05-03 22:53 28.09458 -82.55561 39052 ft 507 kts 177°
2026-05-03 22:53 28.02651 -82.53487 39050 ft 506 kts 177°
2026-05-03 22:54 27.95855 -82.51216 39049 ft 512 kts 174°
2026-05-03 22:54 27.89065 -82.48798 39031 ft 511 kts 175°
2026-05-03 22:55 27.82316 -82.46413 39030 ft 513 kts 174°
2026-05-03 22:55 27.75497 -82.43989 39037 ft 513 kts 174°
2026-05-03 22:56 27.68675 -82.41581 39044 ft 513 kts 174°
2026-05-03 22:56 27.61851 -82.39167 39047 ft 513 kts 174°
2026-05-03 22:57 27.55034 -82.36763 39052 ft 513 kts 174°
2026-05-03 22:57 27.48215 -82.34360 39045 ft 513 kts 174°
2026-05-03 22:58 27.41396 -82.31960 39043 ft 513 kts 174°
2026-05-03 22:58 27.38007 -82.30589 39050 ft 524 kts 169°
2026-05-03 22:58 27.34709 -82.28755 39042 ft 536 kts 162°
2026-05-03 22:59 27.28218 -82.24605 39058 ft 536 kts 162°
2026-05-03 22:59 27.21712 -82.20502 39049 ft 537 kts 162°
2026-05-03 23:00 27.15254 -82.16391 39048 ft 536 kts 162°
2026-05-03 23:00 27.08773 -82.12295 39018 ft 521 kts 162°
2026-05-03 23:00 27.05673 -82.10308 37818 ft 508 kts 162°
2026-05-03 23:01 27.02582 -82.08373 35890 ft 511 kts 162°
2026-05-03 23:01 26.99470 -82.06430 34009 ft 515 kts 161°
2026-05-03 23:01 26.96462 -82.04145 31620 ft 530 kts 152°
2026-05-03 23:01 26.93641 -82.01379 28740 ft 550 kts 142°
2026-05-03 23:02 26.90985 -81.98189 26708 ft 556 kts 139°
2026-05-03 23:02 26.88424 -81.95110 26448 ft 527 kts 140°
2026-05-03 23:02 26.85876 -81.92161 26590 ft 528 kts 141°
2026-05-03 23:02 26.83306 -81.89185 26731 ft 533 kts 140°
2026-05-03 23:03 26.80785 -81.86180 26863 ft 537 kts 140°
2026-05-03 23:03 26.78222 -81.83108 26990 ft 539 kts 140°
2026-05-03 23:03 26.75669 -81.80106 27077 ft 515 kts 141°
2026-05-03 23:03 26.73262 -81.77310 26473 ft 484 kts 141°
2026-05-03 23:04 26.70977 -81.74680 25867 ft 459 kts 142°
2026-05-03 23:04 26.68803 -81.72159 25314 ft 444 kts 142°
2026-05-03 23:04 26.66681 -81.69689 24779 ft 436 kts 142°
2026-05-03 23:04 26.64588 -81.67260 24248 ft 432 kts 142°
2026-05-03 23:05 26.62566 -81.64773 23694 ft 433 kts 136°
2026-05-03 23:05 26.60771 -81.62096 23142 ft 428 kts 133°
2026-05-03 23:05 26.59014 -81.59424 22618 ft 425 kts 133°
2026-05-03 23:05 26.57244 -81.56794 22098 ft 421 kts 134°
2026-05-03 23:06 26.55472 -81.54195 21576 ft 418 kts 134°
2026-05-03 23:06 26.53752 -81.51646 21074 ft 415 kts 133°
2026-05-03 23:06 26.52032 -81.49074 20565 ft 411 kts 133°
2026-05-03 23:06 26.50320 -81.46531 20057 ft 408 kts 133°
2026-05-03 23:07 26.48618 -81.44017 19559 ft 404 kts 133°
2026-05-03 23:07 26.46928 -81.41517 19064 ft 401 kts 133°
2026-05-03 23:07 26.45258 -81.39040 18573 ft 398 kts 133°
2026-05-03 23:07 26.43598 -81.36580 18054 ft 395 kts 133°
2026-05-03 23:08 26.41950 -81.34144 17558 ft 392 kts 133°
2026-05-03 23:08 26.40250 -81.31800 17078 ft 386 kts 136°
2026-05-03 23:08 26.38529 -81.29515 16609 ft 384 kts 135°
2026-05-03 23:08 26.36846 -81.27210 16141 ft 382 kts 134°
2026-05-03 23:09 26.35159 -81.24935 15673 ft 379 kts 135°
2026-05-03 23:09 26.33469 -81.22699 15205 ft 376 kts 135°
2026-05-03 23:09 26.31793 -81.20474 14740 ft 373 kts 135°
2026-05-03 23:09 26.30138 -81.18252 14288 ft 371 kts 134°
2026-05-03 23:10 26.28515 -81.16078 13826 ft 367 kts 134°
2026-05-03 23:10 26.27410 -81.14614 13496 ft 364 kts 135°
2026-05-03 23:10 26.25771 -81.12472 13045 ft 362 kts 135°
2026-05-03 23:10 26.24140 -81.10338 12594 ft 360 kts 134°
2026-05-03 23:11 26.22551 -81.08241 12158 ft 357 kts 134°
2026-05-03 23:11 26.20956 -81.06137 11723 ft 354 kts 134°
2026-05-03 23:11 26.19387 -81.04073 11297 ft 340 kts 134°
2026-05-03 23:11 26.17901 -81.02116 10889 ft 322 kts 134°
2026-05-03 23:12 26.16467 -81.00238 10503 ft 315 kts 134°
2026-05-03 23:12 26.15112 -80.98347 10100 ft 311 kts 127°
2026-05-03 23:12 26.14380 -80.96071 9667 ft 314 kts 103°
2026-05-03 23:12 26.14003 -80.93669 9112 ft 313 kts 101°
2026-05-03 23:13 26.13624 -80.91300 8701 ft 309 kts 102°
2026-05-03 23:13 26.13222 -80.88958 8321 ft 308 kts 102°
2026-05-03 23:13 26.12827 -80.86619 7940 ft 307 kts 102°
2026-05-03 23:13 26.12445 -80.84289 7558 ft 304 kts 102°
2026-05-03 23:14 26.12066 -80.81996 7013 ft 302 kts 102°
2026-05-03 23:14 26.11687 -80.79726 7024 ft 300 kts 102°
2026-05-03 23:14 26.11310 -80.77473 7031 ft 301 kts 102°
2026-05-03 23:14 26.10923 -80.75153 7032 ft 301 kts 102°
2026-05-03 23:15 26.10552 -80.72928 7001 ft 286 kts 102°
2026-05-03 23:15 26.10204 -80.70835 7012 ft 265 kts 102°
2026-05-03 23:15 26.09877 -80.68882 7012 ft 248 kts 102°
2026-05-03 23:15 26.09569 -80.67047 7010 ft 234 kts 102°
2026-05-03 23:16 26.09276 -80.65300 6867 ft 230 kts 102°
2026-05-03 23:16 26.08968 -80.63485 6174 ft 248 kts 102°
2026-05-03 23:16 26.08642 -80.61567 5723 ft 250 kts 102°
2026-05-03 23:16 26.08323 -80.59690 5360 ft 246 kts 102°
2026-05-03 23:17 26.07997 -80.57776 5022 ft 253 kts 101°
2026-05-03 23:17 26.07680 -80.55906 5026 ft 242 kts 101°
2026-05-03 23:17 26.07365 -80.54058 5032 ft 243 kts 101°
2026-05-03 23:17 26.07054 -80.52233 5023 ft 241 kts 102°
2026-05-03 23:18 26.06754 -80.50466 5010 ft 224 kts 102°
2026-05-03 23:18 26.06468 -80.48790 5004 ft 214 kts 102°
2026-05-03 23:18 26.06198 -80.47221 4981 ft 203 kts 102°
2026-05-03 23:18 26.05954 -80.45657 4629 ft 208 kts 95°
2026-05-03 23:19 26.06095 -80.44073 4380 ft 198 kts 80°
2026-05-03 23:19 26.06370 -80.42581 3577 ft 202 kts 73°
2026-05-03 23:19 26.06713 -80.41055 2978 ft 203 kts 83°
2026-05-03 23:19 26.06729 -80.39481 2994 ft 201 kts 90°
2026-05-03 23:20 26.06716 -80.37899 3022 ft 206 kts 90°
2026-05-03 23:20 26.06705 -80.36322 3011 ft 200 kts 90°
2026-05-03 23:20 26.06696 -80.34887 2996 ft 175 kts 90°
2026-05-03 23:20 26.06688 -80.33544 2984 ft 178 kts 90°
2026-05-03 23:21 26.06682 -80.32170 2785 ft 178 kts 90°
2026-05-03 23:21 26.06672 -80.30809 2562 ft 175 kts 90°
2026-05-03 23:21 26.06664 -80.29484 2347 ft 168 kts 89°
2026-05-03 23:21 26.06659 -80.28195 2127 ft 166 kts 89°
2026-05-03 23:22 26.06644 -80.25628 1693 ft 166 kts 89°
2026-05-03 23:22 26.06636 -80.24376 1487 ft 155 kts 88°
2026-05-03 23:22 26.06631 -80.23192 1273 ft 154 kts 88°
2026-05-03 23:23 26.06625 -80.22007 1075 ft 154 kts 89°
2026-05-03 23:23 26.06618 -80.20814 875 ft 153 kts 88°
2026-05-03 23:23 26.06609 -80.19643 698 ft 152 kts 89°
2026-05-03 23:23 26.06604 -80.18503 518 ft 137 kts 86°
2026-05-03 23:24 26.06602 -80.17479 359 ft 127 kts 85°
2026-05-03 23:24 26.06592 -80.16527 188 ft 120 kts 86°
2026-05-03 23:24 26.06589 -80.15602 29 ft 113 kts 86°
2026-05-03 23:24 26.06589 -80.14894 17 ft 53 kts 90°
2026-05-03 23:25 26.06614 -80.14693 15 ft 16 kts 45°
2026-05-03 23:25 26.06657 -80.14677 15 ft 0 kts 348°
2026-05-03 23:25 26.06666 -80.14680 15 ft 4 kts 338°
2026-05-03 23:25 26.06681 -80.14694 15 ft 5 kts 316°
2026-05-03 23:26 26.06692 -80.14733 15 ft 6 kts 273°
2026-05-03 23:26 26.06693 -80.14783 16 ft 6 kts 270°
2026-05-03 23:26 26.06694 -80.14824 17 ft 5 kts 271°
2026-05-03 23:26 26.06694 -80.14881 18 ft 14 kts 270°
2026-05-03 23:27 26.06694 -80.15026 19 ft 19 kts 270°
2026-05-03 23:27 26.06738 -80.15132 20 ft 15 kts 357°
2026-05-03 23:27 26.06833 -80.15131 20 ft 13 kts 359°
2026-05-03 23:27 26.06921 -80.15131 22 ft 12 kts
2026-05-03 23:28 26.06982 -80.15162 21 ft 8 kts 285°
2026-05-03 23:28 26.06987 -80.15260 19 ft 19 kts 279°
2026-05-03 23:28 26.07081 -80.15327 18 ft 17 kts 322°
2026-05-03 23:28 26.07163 -80.15415 18 ft 16 kts 315°
2026-05-03 23:29 26.07246 -80.15507 16 ft 17 kts 314°
2026-05-03 23:29 26.07325 -80.15605 16 ft 16 kts 291°
2026-05-03 23:29 26.07298 -80.15677 17 ft 0 kts 205°